Location: *
(41.7492°S, 135.4150°W)
Time: 10:17:48
(UTC+00:00)

Envisat - Pass Details

Date: 21 January 2022
Orbit: 764 x 765 km, 98.2° (Epoch: 25 May)

Event Time Altitude Azimuth Distance (km) Brightness Sun altitude
Rises 12:48:20 0° 21° (NNE) 3,227 6.0 -10.8°
Reaches altitude 10° 12:50:38 10° 23° (NNE) 2,309 5.3 -10.5°
Maximum altitude 12:55:42 71° 106° (ESE) 821 3.4 -9.8°
Drops below altitude 10° 13:00:50 10° 189° (S) 2,340 5.9 -9.0°
Sets 13:03:10 0° 190° (S) 3,274 6.6 -8.7°
